Flag for U.S.A. Weather past 2 weeks in Independence, Missouri, U.S.A.

Now
71 °F

Sunny.


Feels Like: 75 °F
Forecast: 65 / 83 °F
Wind: 8 mph from Southeast

Location: Lee's Summit Municipal Airport

Current Time: Jul 24, 2014 at 9:35:59 AM

Latest Report: Jul 24, 2014 at 8:53 AM


Visibility: 10 mi

Pressure: 30.14 "Hg

Humidity: 68%

Dew point: 60 °F

Location of IndependenceLocation

Historic Weather in Independence — Graph

°F

Independence temperature yesterday

Maximum temperature yesterday: 87 °F (at 2:53 PM)
Minimum temperature yesterday: 73 °F (at 11:53 PM)
Average temperature yesterday: 80 °F

Past Weeks' High & Low Weather Summary

 TemperatureHumidityPressure
High95 °F (Jul 22, 6:53 PM)93% (Jul 14, 5:53 AM)30.14 "Hg (Jul 14, 5:53 AM)
Low55 °F (Jul 15, 5:53 AM)40% (Jul 16, 2:53 PM)29.92 "Hg (Jul 20, 6:53 PM)
Average75 °F68%30.03 "Hg
* Reported Jul 9 7:53 AM — Jul 24 7:53 AM, Independence, Weather by CustomWeather, © 2014

Note: Actual official high and low records may vary slightly from our data, if they occured in-between our weather recording intervals... More about our weather records

Advertising

Independence weather history for previous 24 hours

 ConditionsComfort  
Time TempWeatherWind HumidityBarometerVisibility
7:53 AM
Jul 24
68 °FSunny.8 mph76%30.13 "Hg10 mi
6:53 AM64 °FClear.6 mph87%30.12 "Hg10 mi
5:53 AM64 °FClear.5 mph87%30.12 "Hg10 mi
4:53 AM65 °FClear.6 mph85%30.10 "Hg10 mi
3:53 AM66 °FClear.6 mph84%30.10 "Hg10 mi
2:53 AM67 °FClear.6 mph81%30.10 "Hg10 mi
1:53 AM70 °FClear.9 mph73%30.11 "Hg10 mi
12:53 AM71 °FClear.7 mph73%30.12 "Hg10 mi
11:53 PM
Jul 23
73 °FClear.7 mph71%30.12 "Hg10 mi
10:53 PM74 °FClear.7 mph69%30.11 "Hg10 mi
9:53 PM76 °FClear.6 mph64%30.10 "Hg10 mi
8:53 PM78 °FSunny.6 mph60%30.09 "Hg10 mi
7:53 PM81 °FSunny.10 mph53%30.08 "Hg10 mi
6:53 PM84 °FSunny.13 mph49%30.07 "Hg10 mi
5:53 PM86 °FSunny.18 mph48%30.06 "Hg10 mi
4:53 PM86 °FSunny.10 mph49%30.06 "Hg10 mi
3:53 PM86 °FSunny.6 mph48%30.08 "Hg10 mi
2:53 PM87 °FSunny.12 mph46%30.10 "Hg10 mi
1:53 PM86 °FSunny.15 mph45%30.12 "Hg10 mi
12:53 PM86 °FScattered clouds.14 mph51%30.14 "Hg10 mi
11:53 AM84 °FSunny.14 mph57%30.13 "Hg10 mi
10:53 AM82 °FSunny.10 mph60%30.12 "Hg10 mi
9:53 AM79 °FSunny.10 mph67%30.11 "Hg10 mi
Weather by CustomWeather, © 2014

See weather overviewHow to use our weather pages